Dewpoint
71 71 72 72 72 73 74 73 69 71 73 69 75 76 76 74 74 76 76 75 74 75 75 74 74 75 74 73 72 71 70 71 69 69 70 70 72 74 73 74 74 72 71
69 72 72 72 71 71 73 72 76 75 77 76 76 76 76 75 76 76 74 74 72 73 74 75 74 70 74 76 74 74 73 74 72 68 73 69 70 72 75 74 73 65 70
71 73 72 72 72 73 71 73 75 76 76 74 76 76 75 75 74 76 76 76 74 72 74 74 74 74 74 74 74 74 72 72 73 72 72 71 71 72 70 70 72 73 70
73 73 71 74 71 72 71 73 74 76 75 75 75 74 75 75 74 74 75 74 74 73 73 73 70 72 74 74 73 74 72 73 72 71 70 70 70 73 72 71 70 72 70
72 72 71 72 73 75 74 75 75 75 74 74 75 75 75 71 65 67 74 74 74 74 75 74 74 73 71 71 73 75 76 74 73 71 70 69 70 71 70 72 71 72 72
70 70 72 72 72 72 72 74 75 75 75 75 74 74 74 66 61 63 67 74 74 74 74 74 73 74 71 69 69 69 71 73 73 72 71 70 72 72 72 72 72 71 70
70 70 71 72 72 71 71 73 72 73 74 74 74 74 69 63 57 58 63 70 73 75 76 76 74 66 63 65 68 68 68 67 68 72 72 72 72 74 72 71 71 71 70
70 70 70 70 70 69 69 71 72 71 70 70 70 69 67 56 53 55 59 69 75 74 72 72 68 63 57 58 65 70 70 72 72 68 71 69 68 69 69 68 70 71 72
70 70 69 69 68 69 68 68 69 69 69 67 66 63 63 55 50 53 60 74 71 66 64 61 63 60 56 56 67 65 67 64 56 60 62 60 59 59 61 65 68 68 67
69 69 70 70 68 67 67 67 68 68 66 64 61 57 57 54 48 50 58 71 69 65 61 58 55 55 54 54 62 62 60 60 58 60 62 65 65 65 61 67 70 66 65
63 65 67 68 68 67 67 69 67 64 62 60 57 55 52 52 48 49 50 59 61 58 61 58 57 53 51 51 53 60 58 56 57 58 59 63 60 60 64 65 70 66 64
62 62 62 63 62 65 64 62 63 62 61 60 58 57 53 52 48 47 48 49 51 58 55 56 56 50 49 49 54 53 52 54 60 57 54 54 54 56 60 64 67 64 62
59 60 61 64 63 64 62 62 60 61 59 59 59 56 55 55 51 46 46 47 50 55 51 50 50 50 50 54 54 54 53 50 52 50 52 53 53 56 59 56 56 59 58
58 59 59 59 56 51 52 57 55 48 56 59 60 57 54 54 51 48 49 53 49 53 53 56 52 51 52 50 50 50 49 49 48 48 49 50 52 50 49 49 51 52 52
57 56 57 55 55 48 40 41 43 39 39 44 44 45 50 51 40 40 39 41 42 44 44 55 53 53 50 49 48 49 48 47 46 47 47 46 46 46 44 47 47 47 46
55 54 55 57 56 52 50 40 39 39 39 38 38 42 36 38 39 39 38 39 40 41 49 54 50 50 49 49 49 50 49 50 50 50 50 49 49 48 46 48 48 46 44
53 51 50 50 54 53 52 47 42 36 39 38 38 38 38 37 37 37 37 38 40 42 47 52 51 50 49 50 48 48 47 48 51 50 48 47 45 44 43 42 42 41 40
49 46 43 50 44 49 51 48 44 42 40 37 37 37 36 37 38 37 37 39 45 43 49 48 47 48 48 47 46 45 46 45 46 47 44 43 42 41 40 40 40 40 39
48 48 46 45 45 43 45 45 43 44 46 39 33 35 36 38 38 38 40 40 44 41 43 44 46 45 46 47 47 48 48 45 46 44 42 41 40 39 39 38 38 39 40
47 45 45 45 44 42 44 41 43 43 44 42 40 40 36 38 40 44 48 48 47 41 44 44 45 46 47 47 47 47 45 44 43 40 40 39 39 38 37 37 37 36 36
46 44 45 41 38 41 40 40 41 40 41 43 39 37 38 41 41 43 41 46 45 43 47 45 47 47 47 46 46 44 41 40 40 39 38 38 38 36 37 37 36 36 36
42 40 39 38 39 42 41 41 40 41 40 39 36 33 36 37 39 43 44 42 43 45 44 48 44 43 42 43 43 39 38 38 38 37 36 36 36 36 36 36 35 35 35
42 39 38 37 39 42 41 42 40 40 38 38 38 33 28 34 39 40 41 41 42 43 43 43 42 39 39 40 40 38 35 36 36 36 35 35 35 35 35 35 35 34 35
43 42 40 39 40 38 37 39 39 38 39 40 41 37 36 36 38 43 42 41 41 43 42 42 41 38 41 41 40 38 38 38 37 35 35 35 35 35 35 36 36 36 36
44 43 44 43 41 40 39 37 37 38 38 39 40 41 40 41 42 43 41 43 43 43 43 43 43 41 41 41 40 38 34 33 35 33 35 36 35 36 35 37 37 38 37
47 46 45 44 44 43 42 40 41 41 39 39 39 41 41 40 40 42 41 42 42 42 43 43 43 42 41 40 40 36 31 32 34 32 34 34 34 35 36 37 37 37 38
Lifted_Index
-4 -4 -4 -4 -3 -3 -3 -3 -3 -3 -3 -3 -4 -5 -5 -5 -5 -5 -5 -4 -4 -4 -4 -4 -4 -4 -5 -5 -5 -4 -4 -4 -3 -3 -3 -3 -3 -4 -4 -4 -4 -4 -4
-4 -4 -4 -3 -3 -3 -3 -3 -3 -4 -4 -4 -4 -5 -5 -5 -5 -5 -5 -4 -4 -4 -4 -4 -4 -4 -4 -5 -5 -4 -4 -4 -4 -3 -3 -3 -3 -3 -4 -4 -4 -4 -4
-4 -4 -3 -3 -3 -3 -2 -3 -3 -4 -4 -5 -5 -5 -5 -5 -5 -5 -5 -4 -4 -4 -4 -4 -4 -4 -4 -4 -4 -4 -4 -4 -4 -4 -4 -3 -3 -3 -3 -3 -3 -4 -4
-3 -3 -3 -3 -3 -3 -3 -3 -3 -4 -4 -4 -5 -5 -5 -5 -4 -4 -4 -4 -4 -5 -5 -4 -4 -4 -4 -4 -4 -4 -4 -4 -4 -4 -4 -3 -3 -3 -3 -3 -3 -4 -4
-3 -3 -3 -3 -3 -3 -3 -3 -3 -4 -4 -4 -4 -4 -4 -4 -4 -4 -4 -4 -4 -5 -5 -5 -4 -4 -4 -4 -4 -4 -4 -4 -4 -4 -4 -4 -4 -4 -4 -4 -4 -4 -4
-3 -3 -2 -2 -2 -2 -3 -3 -3 -3 -3 -3 -4 -4 -4 -3 -3 -3 -3 -4 -4 -5 -5 -5 -5 -4 -4 -4 -4 -4 -4 -4 -4 -4 -4 -4 -4 -4 -4 -4 -4 -4 -4
-3 -3 -2 -2 -2 -2 -2 -2 -3 -3 -3 -3 -3 -3 -3 -3 -2 -2 -2 -3 -4 -5 -5 -5 -4 -4 -4 -4 -4 -4 -4 -4 -4 -4 -4 -3 -3 -3 -2 -2 -3 -3 -3
-3 -3 -3 -2 -1 -1 -1 -1 -1 -2 -2 -2 -2 -2 -1 -1 -1 -1 -2 -3 -4 -4 -4 -4 -3 -3 -2 -2 -2 -3 -3 -3 -2 -2 -1 -1 -1 -0 -0 -0 -1 -2 -3
-4 -3 -3 -2 -1 -0 0 0 0 -0 -0 -0 -0 0 1 1 1 0 -1 -3 -4 -3 -3 -2 -2 -2 -1 -1 -1 -1 -1 -0 1 1 1 1 1 1 1 0 -1 -2 -2
-3 -3 -3 -2 -1 -0 0 0 1 1 1 0 1 1 1 1 1 1 -1 -2 -2 -1 -1 -1 -1 -0 1 1 2 2 3 4 4 4 3 2 1 1 1 1 -0 -0 -0
-3 -3 -2 -2 -1 -0 -0 0 1 1 1 1 1 1 2 2 2 1 1 -0 -0 0 1 1 1 2 3 4 5 5 6 7 7 6 4 3 3 3 3 3 2 2 3
-3 -3 -2 -1 -1 -0 -0 0 1 1 1 1 1 1 2 2 2 2 2 2 2 2 3 3 4 5 6 7 8 9 9 8 8 7 6 6 5 5 5 5 5 5 6
-2 -2 -1 -1 -0 0 0 1 1 1 1 1 1 1 2 2 2 2 3 3 4 4 5 6 7 8 9 10 10 10 10 10 10 10 9 8 8 9 8 8 8 8 9
1 1 1 2 2 2 2 2 2 2 2 2 3 3 3 3 3 4 5 5 6 7 8 9 10 11 11 11 11 11 12 12 13 13 12 12 12 12 12 11 11 11 11
5 5 5 5 5 5 4 4 3 3 3 3 4 4 5 6 6 7 8 9 10 11 11 11 12 12 12 11 11 12 13 14 15 15 15 14 14 14 14 14 13 13 13
8 7 7 7 7 7 7 6 6 6 5 5 5 6 7 8 9 10 12 13 13 13 12 11 12 12 12 12 12 13 13 14 14 14 15 15 15 15 15 15 15 15 15
9 9 9 8 8 9 9 9 10 10 9 9 8 9 10 11 12 13 15 15 15 14 12 11 11 12 12 13 13 13 13 14 14 14 14 15 15 16 16 16 16 16 16
10 10 10 10 10 10 10 10 11 12 12 12 12 13 14 15 15 15 15 15 14 13 12 12 12 12 13 13 13 13 14 14 15 15 15 16 16 17 17 17 17 17 17
11 11 11 11 11 11 11 11 11 12 12 13 13 15 16 16 16 15 14 13 12 12 12 12 13 13 13 13 14 14 15 15 15 16 16 17 18 18 18 18 18 18 18
10 11 11 11 11 11 12 12 12 12 12 12 13 13 14 15 15 13 13 12 12 12 12 12 13 13 13 14 14 15 15 16 16 17 18 18 19 19 19 19 19 19 19
9 9 10 11 11 12 12 12 12 12 12 12 12 12 13 13 13 12 12 12 12 12 12 13 13 13 13 14 15 15 16 16 17 18 18 18 18 18 18 18 18 18 18
8 8 8 9 10 11 11 11 11 11 11 11 11 11 12 12 12 11 11 12 12 12 12 13 13 13 13 14 15 16 16 16 17 17 17 17 17 17 17 16 16 16 16
6 6 7 7 8 9 10 10 10 10 10 10 10 10 11 11 11 10 10 10 11 11 12 12 12 13 13 14 14 15 15 16 16 16 16 16 16 15 15 15 14 14 15
5 5 6 6 7 8 8 8 9 9 9 9 9 9 9 9 9 9 9 9 10 10 11 11 11 12 12 13 13 14 14 15 16 16 16 15 15 14 14 13 13 13 13
3 4 5 5 6 6 7 7 7 7 7 7 7 7 8 8 8 8 8 9 9 9 9 10 10 11 11 11 12 13 14 15 15 16 15 14 14 13 13 12 12 12 12
2 3 4 4 5 6 6 7 7 7 7 7 7 7 7 7 7 7 8 8 8 8 8 9 9 10 10 11 11 12 13 14 15 15 15 14 13 12 12 12 11 11 11